FREGAT DEB, 45816

Orbit data source: Space-Track

FREGAT DEB, 45816 is space debris in LEO originally from a launch on Mon, 18 Jul 2011 UTC launched from the Tyuratam Missile And Space Complex (TTMTR). Debris objects in space refer to the collection of defunct objects orbiting the Earth. Examples of debris include non-operational satellites, rocket bodies, and fragments generated from explosions, collisions, or faulty payload assembly.

Loading next visibility...
Identifier
45816, 2011-037BA
Orbit
LEO
Country
Flag of CISCIS
Related business
Manufacturer
Lavochkin
Mission
Spacecraft
Bus & Motor
Unknown
Mass
Unknown
Launch date (UTC)
2011-07-18 (14 years ago)
Launch vehicle
Unknown
Launch site
Tyuratam Missile And Space Complex (TTMTR)
Object type
Payload
Rocket body
Debris
Shape & HBR
Unknown shape, 0.1 m
Radar Cross Section
Small (<0.1 m²)

Expand to show TLE details & history
Last TLE update: 1 day ago

TLE from 1 day ago
0 FREGAT DEB
1 45816U 11037BA  25348.83226670  .00010577  00000-0  22447-2 0  9993
2 45816  51.4721 182.6581 1617324  28.9932 339.1737 11.84061134230382
Epoch: 2025-12-14T19:58Z
TLE epoch observation values (Epoch: 2025-12-14T19:58:27.842Z)
Latitude
-0.00009°
Longitude
159.3025°
Altitude
558.809 km
Speed
8.12 km/s
True Right ascension
12h 10m 37s
True Declination
0° 00' 00"
Sunlit
Object was in daylight at epoch
Visualization orbit readout
Latitude
Unknown
Longitude
Unknown
Altitude
Unknown
Speed
Unknown
Apparent Right ascension
Unknown
Apparent Declination
Unknown
Sunlit
N/A
Visualization observer readout
Local Sidereal Time
21:22:26
Azimuth
Unknown
Elevation
Unknown
Doppler factor
Unknown
Orbital elements
Apogee altitude
3,068.636 km
Perigee altitude
438.341 km
Semi-major axis
8,131.626 km
Eccentricity
0.16173
Inclination
51.4721°
RAAN
182.6581°
Arg. of periapsis
28.9932°
True anomaly
331.09478°
Mean anomaly
339.1737°
Eccentric anomaly
335.30176°
Mean motion
2.9599 °/min
Orbital period
121.63 mins
BSTAR
0.0022447
Loading maneuver chart data...
Computing Atmospheric mass density...
Loading historical data...
Loading historical data...
Loading historical data...
Loading historical data...
Loading historical data...
Loading historical data...
Loading historical data...

Documentation

Showing up to 5 results
|